RH
46 46 46 42 39 33 31 29 28 29 29 28 26 24 22 22 24 24 25 28 31 33 35 37 38 38 37 36 36 38 37 37 38 38 37 35 33 31 30 31 32 30 30 30
49 46 45 47 44 40 37 35 34 33 32 30 28 26 24 24 24 26 28 31 34 37 38 41 42 41 41 40 40 40 40 40 41 42 41 38 34 34 33 35 36 34 35 35
49 48 46 46 46 45 41 40 40 37 36 32 30 25 25 25 25 26 29 31 34 36 39 42 43 44 44 43 43 45 45 45 46 47 44 40 37 36 38 40 39 39 39 39
54 49 50 53 49 48 45 43 40 40 40 39 35 26 25 27 27 28 29 32 34 39 43 45 45 46 46 46 47 47 48 49 49 47 45 42 39 42 45 43 42 41 42 41
53 52 53 52 51 55 51 49 46 43 45 43 39 39 24 29 30 31 32 36 39 42 43 44 46 48 49 50 50 50 50 50 50 49 48 45 45 46 47 45 48 49 50 48
57 57 55 55 54 56 52 51 52 52 52 49 44 45 23 29 30 34 36 38 40 40 42 43 46 48 49 51 53 54 54 55 55 54 49 50 49 48 51 54 54 58 53 53
59 56 56 54 54 54 54 54 59 62 62 47 45 47 31 34 36 37 38 39 40 42 43 44 45 48 53 57 59 63 60 59 57 55 57 55 55 58 59 61 62 58 55 52
52 47 49 51 54 61 60 59 58 68 62 51 53 45 37 46 47 45 44 44 45 46 47 49 50 55 62 65 66 66 67 65 66 65 62 62 68 68 67 67 59 58 57 52
51 46 43 44 44 49 51 55 52 60 61 62 47 43 46 50 49 48 50 51 51 51 50 52 55 59 67 72 75 74 74 74 74 76 67 63 62 63 60 59 62 58 58 59
50 50 48 48 47 47 46 47 55 61 60 60 44 49 48 55 53 53 55 55 57 59 60 61 63 68 76 80 79 78 75 78 77 75 71 68 66 65 64 65 67 67 71 65
54 51 51 54 55 56 55 51 54 57 59 55 51 48 52 54 61 58 59 59 61 62 62 63 68 73 78 80 80 81 79 79 77 75 71 70 71 69 69 73 70 65 63 62
76 69 61 58 64 62 67 71 70 72 63 70 66 56 60 63 69 63 64 66 64 67 73 73 72 74 78 78 78 80 82 84 84 79 77 77 73 78 71 68 70 67 56 52
77 93 86 77 75 75 81 82 84 79 79 77 84 76 71 72 77 74 72 71 68 67 71 72 75 76 77 80 81 80 83 90 89 82 78 77 76 73 67 67 64 60 57 52
80 89 97 96 97 93 94 95 97 98 96 95 94 88 79 80 88 85 76 72 72 69 63 64 69 71 75 78 78 82 89 87 85 85 76 74 73 71 72 75 75 66 60 49
84 88 87 90 94 93 95 91 91 96 94 95 82 87 74 74 83 86 76 73 73 70 71 71 70 70 75 77 80 83 83 84 81 82 80 77 79 77 73 69 76 64 49 43
77 79 81 81 76 79 84 72 79 79 79 83 83 74 63 64 70 70 66 62 60 59 61 63 65 66 68 72 77 77 77 80 79 82 80 81 78 79 73 69 66 60 51 51
75 76 81 75 69 76 79 61 66 64 65 70 77 56 54 58 62 64 59 56 56 53 55 60 64 66 66 67 67 75 76 76 75 81 79 84 84 81 74 68 67 62 59 58
69 71 76 72 76 84 59 53 57 60 56 57 57 54 55 54 54 52 54 55 51 50 56 57 59 61 62 66 69 66 66 73 78 79 86 85 90 86 77 72 66 64 62 61
58 64 72 83 76 67 49 45 54 57 52 46 48 49 52 54 52 40 45 49 53 56 61 60 62 63 57 60 62 65 71 78 81 86 86 93 95 87 78 69 70 68 66 64
62 68 74 85 92 83 40 44 47 47 43 36 39 40 41 43 46 44 50 52 58 63 62 60 59 60 60 62 68 73 76 81 84 92 94 96 92 87 76 71 73 76 69 65
66 73 75 78 86 65 47 43 43 45 34 31 37 42 46 50 57 59 61 58 54 59 59 57 59 64 71 80 83 83 80 84 90 91 94 96 85 82 76 77 82 74 68 69
62 69 74 80 91 76 44 37 33 29 29 32 40 45 46 51 63 67 66 70 75 73 71 72 77 77 83 81 83 89 87 90 87 91 94 87 88 85 82 87 79 70 72 68
63 57 64 63 56 49 39 30 23 23 27 31 31 31 28 30 34 49 63 67 73 80 77 81 81 82 85 83 86 88 88 88 88 93 92 90 88 85 91 83 77 74 77 63
59 61 61 61 42 46 46 32 23 22 24 22 17 20 24 28 35 47 65 73 79 84 89 85 77 75 79 82 83 83 84 87 91 93 93 91 90 96 89 85 78 80 76 65
60 62 56 49 44 46 38 26 21 20 22 18 19 25 30 33 39 51 89 99 95 89 80 68 67 69 73 77 80 84 86 89 92 93 93 94 98 94 86 85 86 84 70 64
53 52 56 48 53 45 35 25 22 22 22 24 24 31 34 36 41 47 77 90 88 74 67 70 71 74 80 85 90 93 95 97 97 97 97 98 97 91 88 90 84 75 66 59